Time,TemperatureF,DewpointF,PressureIn,WindDirection,WindDirectionDegrees,WindSpeedMPH,WindSpeedGustMPH,Humidity,HourlyPrecipIn,Conditions,Clouds,dailyrainin,SoftwareType,DateUTC
2013-10-31 00:00:00,28.3,13.4,29.78,North,349,9.0,11.0,53,0.00,,---,0.00,VWS V14.01,2013-10-31 06:00:00,
2013-10-31 00:01:00,27.9,13.4,29.76,North,349,0.0,0.0,54,0.00,,---,0.00,VWS V14.01,2013-10-31 06:01:00,
2013-10-31 00:10:00,29.2,14.2,29.74,NNW,345,10.0,13.0,53,0.00,,---,0.00,VWS V14.01,2013-10-31 06:10:00,
2013-10-31 00:11:00,27.2,12.4,29.76,North,349,0.0,9.0,53,0.00,,---,0.00,VWS V14.01,2013-10-31 06:11:00,
2013-10-31 00:20:00,29.1,13.7,29.74,North,355,0.0,12.0,52,0.00,,---,0.00,VWS V14.01,2013-10-31 06:20:00,
2013-10-31 00:21:00,26.7,12.3,29.75,North,349,0.0,0.0,54,0.00,,---,0.00,VWS V14.01,2013-10-31 06:21:00,
2013-10-31 00:30:00,28.6,13.2,29.74,North,350,0.0,12.0,52,0.00,,---,0.00,VWS V14.01,2013-10-31 06:30:00,
2013-10-31 00:31:00,27.4,12.5,29.76,North,349,0.0,9.0,53,0.00,,---,0.00,VWS V14.01,2013-10-31 06:31:00,
2013-10-31 00:41:00,27.4,12.5,29.74,North,349,0.0,0.0,53,0.00,,---,0.00,VWS V14.01,2013-10-31 06:41:00,
2013-10-31 00:50:00,27.8,13.3,29.76,North,349,0.0,9.0,54,0.00,,---,0.00,VWS V14.01,2013-10-31 06:50:00,
2013-10-31 00:51:00,26.7,12.3,29.76,North,349,0.0,0.0,54,0.00,,---,0.00,VWS V14.01,2013-10-31 06:51:00,
2013-10-31 01:00:00,27.9,13.4,29.76,North,349,0.0,0.0,54,0.00,,---,0.00,VWS V14.01,2013-10-31 07:00:00,
2013-10-31 01:01:00,28.7,14.2,29.73,North,350,0.0,11.0,54,0.00,,---,0.00,VWS V14.01,2013-10-31 07:01:00,
2013-10-31 01:10:00,27.2,12.4,29.76,North,349,0.0,9.0,53,0.00,,---,0.00,VWS V14.01,2013-10-31 07:10:00,
2013-10-31 01:11:00,28.3,12.9,29.74,North,349,0.0,0.0,52,0.00,,---,0.00,VWS V14.01,2013-10-31 07:11:00,
2013-10-31 01:20:00,26.7,12.3,29.75,North,349,0.0,0.0,54,0.00,,---,0.00,VWS V14.01,2013-10-31 07:20:00,
2013-10-31 01:21:00,28.0,15.5,29.74,NNW,348,9.0,13.0,59,0.00,,---,0.00,VWS V14.01,2013-10-31 07:21:00,
2013-10-31 01:30:00,27.4,12.5,29.76,North,349,0.0,9.0,53,0.00,,---,0.00,VWS V14.01,2013-10-31 07:30:00,
2013-10-31 01:31:00,28.7,15.8,29.74,NNW,337,7.0,12.0,58,0.00,,---,0.00,VWS V14.01,2013-10-31 07:31:00,
2013-10-31 01:40:00,27.4,12.5,29.74,North,349,0.0,0.0,53,0.00,,---,0.00,VWS V14.01,2013-10-31 07:40:00,
2013-10-31 01:41:00,28.7,16.6,29.74,North,355,14.0,15.0,60,0.00,,---,0.00,VWS V14.01,2013-10-31 07:41:00,
2013-10-31 01:50:00,26.7,12.3,29.76,North,349,0.0,0.0,54,0.00,,---,0.00,VWS V14.01,2013-10-31 07:50:00,
2013-10-31 01:51:00,28.8,16.3,29.74,NNW,338,4.0,15.0,59,0.00,,---,0.00,VWS V14.01,2013-10-31 07:51:00,
2013-10-31 02:00:00,28.7,14.2,29.73,North,350,0.0,11.0,54,0.00,,---,0.00,VWS V14.01,2013-10-31 08:00:00,
2013-10-31 02:01:00,28.2,16.9,29.74,NNW,337,10.0,14.0,62,0.00,,---,0.00,VWS V14.01,2013-10-31 08:01:00,
2013-10-31 02:10:00,28.3,12.9,29.74,North,349,0.0,0.0,52,0.00,,---,0.00,VWS V14.01,2013-10-31 08:10:00,
2013-10-31 02:11:00,27.9,16.6,29.74,NNW,337,7.0,14.0,62,0.00,,---,0.00,VWS V14.01,2013-10-31 08:11:00,
2013-10-31 02:20:00,28.0,15.5,29.74,NNW,348,9.0,13.0,59,0.00,,---,0.00,VWS V14.01,2013-10-31 08:20:00,
2013-10-31 02:21:00,28.7,16.2,29.74,NNW,346,10.0,18.0,59,0.00,,---,0.00,VWS V14.01,2013-10-31 08:21:00,
2013-10-31 02:30:00,28.7,15.8,29.74,NNW,337,7.0,12.0,58,0.00,,---,0.00,VWS V14.01,2013-10-31 08:30:00,
2013-10-31 02:31:00,28.9,16.0,29.73,NNW,330,15.0,22.0,58,0.00,,---,0.00,VWS V14.01,2013-10-31 08:31:00,
2013-10-31 02:40:00,28.7,16.6,29.74,North,355,14.0,15.0,60,0.00,,---,0.00,VWS V14.01,2013-10-31 08:40:00,
2013-10-31 02:41:00,29.3,16.0,29.74,NW,317,10.0,18.0,57,0.00,,---,0.00,VWS V14.01,2013-10-31 08:41:00,
2013-10-31 02:50:00,28.8,16.3,29.74,NNW,338,4.0,15.0,59,0.00,,---,0.00,VWS V14.01,2013-10-31 08:50:00,
2013-10-31 02:51:00,29.3,15.6,29.73,NNW,341,15.0,18.0,56,0.00,,---,0.00,VWS V14.01,2013-10-31 08:51:00,
2013-10-31 03:00:00,28.2,16.9,29.74,NNW,337,10.0,14.0,62,0.00,,---,0.00,VWS V14.01,2013-10-31 09:00:00,
2013-10-31 03:01:00,29.9,15.3,29.71,NNW,343,15.0,24.0,54,0.00,,---,0.00,VWS V14.01,2013-10-31 09:01:00,
2013-10-31 03:10:00,27.9,16.6,29.74,NNW,337,7.0,14.0,62,0.00,,---,0.00,VWS V14.01,2013-10-31 09:10:00,
2013-10-31 03:11:00,29.7,15.1,29.75,NNW,336,6.0,21.0,54,0.00,,---,0.00,VWS V14.01,2013-10-31 09:11:00,
2013-10-31 03:20:00,28.7,16.2,29.74,NNW,346,10.0,18.0,59,0.00,,---,0.00,VWS V14.01,2013-10-31 09:20:00,
2013-10-31 03:21:00,29.7,15.1,29.75,North,350,13.0,17.0,54,0.00,,---,0.00,VWS V14.01,2013-10-31 09:21:00,
2013-10-31 03:30:00,28.9,16.0,29.73,NNW,330,15.0,22.0,58,0.00,,---,0.00,VWS V14.01,2013-10-31 09:30:00,
2013-10-31 03:31:00,29.8,14.8,29.75,North,350,0.0,14.0,53,0.00,,---,0.00,VWS V14.01,2013-10-31 09:31:00,
2013-10-31 03:40:00,29.3,16.0,29.74,NW,317,10.0,18.0,57,0.00,,---,0.00,VWS V14.01,2013-10-31 09:40:00,
2013-10-31 03:41:00,29.8,15.2,29.76,NW,319,18.0,25.0,54,0.00,,---,0.00,VWS V14.01,2013-10-31 09:41:00,
2013-10-31 03:50:00,29.3,15.6,29.73,NNW,341,15.0,18.0,56,0.00,,---,0.00,VWS V14.01,2013-10-31 09:50:00,
2013-10-31 03:51:00,29.9,14.9,29.76,North,355,6.0,18.0,53,0.00,,---,0.00,VWS V14.01,2013-10-31 09:51:00,
2013-10-31 04:00:00,29.9,15.3,29.71,NNW,343,15.0,24.0,54,0.00,,---,0.00,VWS V14.01,2013-10-31 10:00:00,
2013-10-31 04:01:00,29.7,15.1,29.76,NNW,344,0.0,7.0,54,0.00,,---,0.00,VWS V14.01,2013-10-31 10:01:00,
2013-10-31 04:10:00,29.7,15.1,29.75,NNW,336,6.0,21.0,54,0.00,,---,0.00,VWS V14.01,2013-10-31 10:10:00,
2013-10-31 04:11:00,29.7,13.8,29.78,NW,323,0.0,12.0,51,0.00,,---,0.00,VWS V14.01,2013-10-31 10:11:00,
2013-10-31 04:20:00,29.7,15.1,29.75,North,350,13.0,17.0,54,0.00,,---,0.00,VWS V14.01,2013-10-31 10:20:00,
2013-10-31 04:21:00,29.4,14.0,29.78,NW,325,8.0,17.0,52,0.00,,---,0.00,VWS V14.01,2013-10-31 10:21:00,
2013-10-31 04:30:00,29.8,14.8,29.75,North,350,0.0,14.0,53,0.00,,---,0.00,VWS V14.01,2013-10-31 10:30:00,
2013-10-31 04:31:00,29.0,14.0,29.78,North,351,0.0,13.0,53,0.00,,---,0.00,VWS V14.01,2013-10-31 10:31:00,
2013-10-31 04:40:00,29.8,15.2,29.76,NW,319,18.0,25.0,54,0.00,,---,0.00,VWS V14.01,2013-10-31 10:40:00,
2013-10-31 04:41:00,28.9,14.4,29.77,North,360,0.0,0.0,54,0.00,,---,0.00,VWS V14.01,2013-10-31 10:41:00,
2013-10-31 04:50:00,29.9,14.9,29.76,North,355,6.0,18.0,53,0.00,,---,0.00,VWS V14.01,2013-10-31 10:50:00,
2013-10-31 04:51:00,27.2,13.6,29.81,North,360,0.0,0.0,56,0.00,,---,0.00,VWS V14.01,2013-10-31 10:51:00,
2013-10-31 05:00:00,29.7,15.1,29.76,NNW,344,0.0,7.0,54,0.00,,---,0.00,VWS V14.01,2013-10-31 11:00:00,
2013-10-31 05:01:00,28.5,14.8,29.79,North,360,0.0,12.0,56,0.00,,---,0.00,VWS V14.01,2013-10-31 11:01:00,
2013-10-31 05:10:00,29.7,13.8,29.78,NW,323,0.0,12.0,51,0.00,,---,0.00,VWS V14.01,2013-10-31 11:10:00,
2013-10-31 05:11:00,29.6,15.0,29.81,North,360,8.0,12.0,54,0.00,,---,0.00,VWS V14.01,2013-10-31 11:11:00,
2013-10-31 05:20:00,29.4,14.0,29.78,NW,325,8.0,17.0,52,0.00,,---,0.00,VWS V14.01,2013-10-31 11:20:00,
2013-10-31 05:21:00,29.2,14.6,29.82,NNW,327,15.0,15.0,54,0.00,,---,0.00,VWS V14.01,2013-10-31 11:21:00,
2013-10-31 05:30:00,29.0,14.0,29.78,North,351,0.0,13.0,53,0.00,,---,0.00,VWS V14.01,2013-10-31 11:30:00,
2013-10-31 05:31:00,29.7,14.7,29.82,WNW,294,6.0,17.0,53,0.00,,---,0.00,VWS V14.01,2013-10-31 11:31:00,
2013-10-31 05:40:00,28.9,14.4,29.77,North,360,0.0,0.0,54,0.00,,---,0.00,VWS V14.01,2013-10-31 11:40:00,
2013-10-31 05:41:00,29.3,15.1,29.82,WNW,295,0.0,9.0,55,0.00,,---,0.00,VWS V14.01,2013-10-31 11:41:00,
2013-10-31 05:51:00,29.7,15.5,29.83,WNW,295,0.0,0.0,55,0.00,,---,0.00,VWS V14.01,2013-10-31 11:51:00,
2013-10-31 06:00:00,28.5,14.8,29.79,North,360,0.0,12.0,56,0.00,,---,0.00,VWS V14.01,2013-10-31 12:00:00,
2013-10-31 06:01:00,29.5,15.3,29.82,North,355,6.0,14.0,55,0.00,,---,0.00,VWS V14.01,2013-10-31 12:01:00,
2013-10-31 06:10:00,29.6,15.0,29.81,North,360,8.0,12.0,54,0.00,,---,0.00,VWS V14.01,2013-10-31 12:10:00,
2013-10-31 06:11:00,29.9,14.9,29.82,North,11,0.0,17.0,53,0.00,,---,0.00,VWS V14.01,2013-10-31 12:11:00,
2013-10-31 06:20:00,29.2,14.6,29.82,NNW,327,15.0,15.0,54,0.00,,---,0.00,VWS V14.01,2013-10-31 12:20:00,
2013-10-31 06:21:00,29.3,13.9,29.85,North,11,0.0,0.0,52,0.00,,---,0.00,VWS V14.01,2013-10-31 12:21:00,
2013-10-31 06:30:00,29.7,14.7,29.82,WNW,294,6.0,17.0,53,0.00,,---,0.00,VWS V14.01,2013-10-31 12:30:00,
2013-10-31 06:31:00,29.7,14.7,29.83,WNW,299,13.0,18.0,53,0.00,,---,0.00,VWS V14.01,2013-10-31 12:31:00,
2013-10-31 06:40:00,29.3,15.1,29.82,WNW,295,0.0,9.0,55,0.00,,---,0.00,VWS V14.01,2013-10-31 12:40:00,
2013-10-31 06:41:00,30.0,14.1,29.83,NNW,332,8.0,23.0,51,0.00,,---,0.00,VWS V14.01,2013-10-31 12:41:00,
2013-10-31 06:50:00,29.7,15.5,29.83,WNW,295,0.0,0.0,55,0.00,,---,0.00,VWS V14.01,2013-10-31 12:50:00,
2013-10-31 06:51:00,30.2,14.3,29.84,NW,318,0.0,12.0,51,0.00,,---,0.00,VWS V14.01,2013-10-31 12:51:00,
2013-10-31 07:00:00,29.5,15.3,29.82,North,355,6.0,14.0,55,0.00,,---,0.00,VWS V14.01,2013-10-31 13:00:00,
2013-10-31 07:01:00,30.3,14.4,29.84,NNE,15,10.0,16.0,51,0.00,,---,0.00,VWS V14.01,2013-10-31 13:01:00,
2013-10-31 07:10:00,29.9,14.9,29.82,North,11,0.0,17.0,53,0.00,,---,0.00,VWS V14.01,2013-10-31 13:10:00,
2013-10-31 07:11:00,29.8,13.9,29.85,NNE,33,7.0,20.0,51,0.00,,---,0.00,VWS V14.01,2013-10-31 13:11:00,
2013-10-31 07:20:00,29.3,13.9,29.85,North,11,0.0,0.0,52,0.00,,---,0.00,VWS V14.01,2013-10-31 13:20:00,
2013-10-31 07:21:00,29.8,13.9,29.85,SE,146,0.0,20.0,51,0.00,,---,0.00,VWS V14.01,2013-10-31 13:21:00,
2013-10-31 07:30:00,29.7,14.7,29.83,WNW,299,13.0,18.0,53,0.00,,---,0.00,VWS V14.01,2013-10-31 13:30:00,
2013-10-31 07:31:00,29.3,13.9,29.85,NNW,341,18.0,18.0,52,0.00,,---,0.00,VWS V14.01,2013-10-31 13:31:00,
2013-10-31 07:40:00,30.0,14.1,29.83,NNW,332,8.0,23.0,51,0.00,,---,0.00,VWS V14.01,2013-10-31 13:40:00,
2013-10-31 07:41:00,29.4,14.0,29.86,ENE,74,2.0,21.0,52,0.00,,---,0.00,VWS V14.01,2013-10-31 13:41:00,
2013-10-31 07:50:00,30.2,14.3,29.84,NW,318,0.0,12.0,51,0.00,,---,0.00,VWS V14.01,2013-10-31 13:50:00,
2013-10-31 07:51:00,30.1,13.7,29.86,SE,146,2.0,9.0,50,0.00,,---,0.00,VWS V14.01,2013-10-31 13:51:00,
2013-10-31 08:00:00,30.3,14.4,29.84,NNE,15,10.0,16.0,51,0.00,,---,0.00,VWS V14.01,2013-10-31 14:00:00,
2013-10-31 08:01:00,30.6,13.7,29.86,WNW,294,18.0,33.0,49,0.00,,---,0.00,VWS V14.01,2013-10-31 14:01:00,
2013-10-31 08:10:00,29.8,13.9,29.85,NNE,33,7.0,20.0,51,0.00,,---,0.00,VWS V14.01,2013-10-31 14:10:00,
2013-10-31 08:11:00,31.4,13.5,29.87,NE,42,18.0,32.0,47,0.00,,---,0.00,VWS V14.01,2013-10-31 14:11:00,
2013-10-31 08:20:00,29.8,13.9,29.85,SE,146,0.0,20.0,51,0.00,,---,0.00,VWS V14.01,2013-10-31 14:20:00,
2013-10-31 08:21:00,31.5,13.6,29.86,WNW,290,22.0,36.0,47,0.00,,---,0.00,VWS V14.01,2013-10-31 14:21:00,
2013-10-31 08:30:00,29.3,13.9,29.85,NNW,341,18.0,18.0,52,0.00,,---,0.00,VWS V14.01,2013-10-31 14:30:00,
2013-10-31 08:31:00,32.1,13.2,29.86,WNW,284,15.0,36.0,45,0.00,,---,0.00,VWS V14.01,2013-10-31 14:31:00,
2013-10-31 08:40:00,29.4,14.0,29.86,ENE,74,2.0,21.0,52,0.00,,---,0.00,VWS V14.01,2013-10-31 14:40:00,
2013-10-31 08:41:00,33.0,13.0,29.85,WSW,254,17.0,26.0,43,0.00,,---,0.00,VWS V14.01,2013-10-31 14:41:00,
2013-10-31 08:50:00,30.1,13.7,29.86,SE,146,2.0,9.0,50,0.00,,---,0.00,VWS V14.01,2013-10-31 14:50:00,
2013-10-31 08:51:00,32.9,14.4,29.86,NW,317,15.0,24.0,46,0.00,,---,0.00,VWS V14.01,2013-10-31 14:51:00,
2013-10-31 09:00:00,30.6,13.7,29.86,WNW,294,18.0,33.0,49,0.00,,---,0.00,VWS V14.01,2013-10-31 15:00:00,
2013-10-31 09:01:00,33.0,13.0,29.86,NNW,340,19.0,27.0,43,0.00,,---,0.00,VWS V14.01,2013-10-31 15:01:00,
2013-10-31 09:10:00,31.4,13.5,29.87,NE,42,18.0,32.0,47,0.00,,---,0.00,VWS V14.01,2013-10-31 15:10:00,
2013-10-31 09:11:00,33.1,13.1,29.87,West,280,32.0,36.0,43,0.00,,---,0.00,VWS V14.01,2013-10-31 15:11:00,
2013-10-31 09:20:00,31.5,13.6,29.86,WNW,290,22.0,36.0,47,0.00,,---,0.00,VWS V14.01,2013-10-31 15:20:00,
2013-10-31 09:21:00,33.6,14.5,29.88,North,349,6.0,33.0,45,0.00,,---,0.00,VWS V14.01,2013-10-31 15:21:00,
2013-10-31 09:30:00,32.1,13.2,29.86,WNW,284,15.0,36.0,45,0.00,,---,0.00,VWS V14.01,2013-10-31 15:30:00,
2013-10-31 09:31:00,34.2,14.6,29.87,WNW,284,15.0,23.0,44,0.00,,---,0.00,VWS V14.01,2013-10-31 15:31:00,
2013-10-31 09:40:00,33.0,13.0,29.85,WSW,254,17.0,26.0,43,0.00,,---,0.00,VWS V14.01,2013-10-31 15:40:00,
2013-10-31 09:41:00,34.8,13.5,29.86,West,266,18.0,28.0,41,0.00,,---,0.00,VWS V14.01,2013-10-31 15:41:00,
2013-10-31 09:50:00,32.9,14.4,29.86,NW,317,15.0,24.0,46,0.00,,---,0.00,VWS V14.01,2013-10-31 15:50:00,
2013-10-31 09:51:00,34.9,14.1,29.86,WNW,282,20.0,26.0,42,0.00,,---,0.00,VWS V14.01,2013-10-31 15:51:00,
2013-10-31 10:00:00,33.0,13.0,29.86,NNW,340,19.0,27.0,43,0.00,,---,0.00,VWS V14.01,2013-10-31 16:00:00,
2013-10-31 10:01:00,35.5,14.1,29.88,NW,312,18.0,27.0,41,0.00,,---,0.00,VWS V14.01,2013-10-31 16:01:00,
2013-10-31 10:10:00,33.1,13.1,29.87,West,280,32.0,36.0,43,0.00,,---,0.00,VWS V14.01,2013-10-31 16:10:00,
2013-10-31 10:11:00,35.6,14.2,29.88,West,275,11.0,25.0,41,0.00,,---,0.00,VWS V14.01,2013-10-31 16:11:00,
2013-10-31 10:20:00,33.6,14.5,29.88,North,349,6.0,33.0,45,0.00,,---,0.00,VWS V14.01,2013-10-31 16:20:00,
2013-10-31 10:30:00,34.2,14.6,29.87,WNW,284,15.0,23.0,44,0.00,,---,0.00,VWS V14.01,2013-10-31 16:30:00,
2013-10-31 10:31:00,36.8,14.8,29.88,WNW,301,22.0,30.0,40,0.00,,---,0.00,VWS V14.01,2013-10-31 16:31:00,
2013-10-31 10:40:00,34.8,13.5,29.86,West,266,18.0,28.0,41,0.00,,---,0.00,VWS V14.01,2013-10-31 16:40:00,
2013-10-31 10:41:00,36.4,14.4,29.88,West,268,19.0,30.0,40,0.00,,---,0.00,VWS V14.01,2013-10-31 16:41:00,
2013-10-31 10:50:00,34.9,14.1,29.86,WNW,282,20.0,26.0,42,0.00,,---,0.00,VWS V14.01,2013-10-31 16:50:00,
2013-10-31 10:51:00,37.0,14.4,29.89,NW,304,15.0,22.0,39,0.00,,---,0.00,VWS V14.01,2013-10-31 16:51:00,
2013-10-31 11:00:00,35.5,14.1,29.88,NW,312,18.0,27.0,41,0.00,,---,0.00,VWS V14.01,2013-10-31 17:00:00,
2013-10-31 11:01:00,37.3,14.6,29.89,NW,306,15.0,24.0,39,0.00,,---,0.00,VWS V14.01,2013-10-31 17:01:00,
2013-10-31 11:10:00,35.6,14.2,29.88,West,275,11.0,25.0,41,0.00,,---,0.00,VWS V14.01,2013-10-31 17:10:00,
2013-10-31 11:11:00,37.5,14.2,29.87,NW,313,16.0,25.0,38,0.00,,---,0.00,VWS V14.01,2013-10-31 17:11:00,
2013-10-31 11:20:00,35.9,13.9,29.89,West,267,21.0,25.0,40,0.00,,---,0.00,VWS V14.01,2013-10-31 17:20:00,
2013-10-31 11:21:00,38.3,14.9,29.87,NW,318,15.0,19.0,38,0.00,,---,0.00,VWS V14.01,2013-10-31 17:21:00,
2013-10-31 11:30:00,36.8,14.8,29.88,WNW,301,22.0,30.0,40,0.00,,---,0.00,VWS V14.01,2013-10-31 17:30:00,
2013-10-31 11:31:00,38.8,14.8,29.87,West,274,13.0,24.0,37,0.00,,---,0.00,VWS V14.01,2013-10-31 17:31:00,
2013-10-31 11:40:00,36.4,14.4,29.88,West,268,19.0,30.0,40,0.00,,---,0.00,VWS V14.01,2013-10-31 17:40:00,
2013-10-31 11:41:00,38.9,14.9,29.86,West,270,11.0,17.0,37,0.00,,---,0.00,VWS V14.01,2013-10-31 17:41:00,
2013-10-31 11:50:00,37.0,14.4,29.89,NW,304,15.0,22.0,39,0.00,,---,0.00,VWS V14.01,2013-10-31 17:50:00,
2013-10-31 11:51:00,39.6,15.5,29.86,WNW,290,7.0,19.0,37,0.00,,---,0.00,VWS V14.01,2013-10-31 17:51:00,
2013-10-31 12:00:00,37.3,14.6,29.89,NW,306,15.0,24.0,39,0.00,,---,0.00,VWS V14.01,2013-10-31 18:00:00,
2013-10-31 12:01:00,39.2,14.5,29.87,West,276,7.0,19.0,36,0.00,,---,0.00,VWS V14.01,2013-10-31 18:01:00,
2013-10-31 12:10:00,37.5,14.2,29.87,NW,313,16.0,25.0,38,0.00,,---,0.00,VWS V14.01,2013-10-31 18:10:00,
2013-10-31 12:11:00,39.2,15.7,29.84,West,263,15.0,32.0,38,0.00,,---,0.00,VWS V14.01,2013-10-31 18:11:00,
2013-10-31 12:20:00,38.3,14.9,29.87,NW,318,15.0,19.0,38,0.00,,---,0.00,VWS V14.01,2013-10-31 18:20:00,
2013-10-31 12:21:00,38.3,15.5,29.85,West,261,16.0,31.0,39,0.00,,---,0.00,VWS V14.01,2013-10-31 18:21:00,
2013-10-31 12:30:00,38.8,14.8,29.87,West,274,13.0,24.0,37,0.00,,---,0.00,VWS V14.01,2013-10-31 18:30:00,
2013-10-31 12:31:00,38.7,15.3,29.83,West,271,15.0,32.0,38,0.00,,---,0.00,VWS V14.01,2013-10-31 18:31:00,
2013-10-31 12:40:00,38.9,14.9,29.86,West,270,11.0,17.0,37,0.00,,---,0.00,VWS V14.01,2013-10-31 18:40:00,
2013-10-31 12:41:00,38.6,17.0,29.83,West,278,19.0,33.0,41,0.00,,---,0.00,VWS V14.01,2013-10-31 18:41:00,
2013-10-31 12:50:00,39.6,15.5,29.86,WNW,290,7.0,19.0,37,0.00,,---,0.00,VWS V14.01,2013-10-31 18:50:00,
2013-10-31 12:51:00,38.6,15.8,29.84,WNW,289,13.0,33.0,39,0.00,,---,0.00,VWS V14.01,2013-10-31 18:51:00,
2013-10-31 13:00:00,39.2,14.5,29.87,West,276,7.0,19.0,36,0.00,,---,0.00,VWS V14.01,2013-10-31 19:00:00,
2013-10-31 13:01:00,38.9,15.5,29.82,West,259,8.0,33.0,38,0.00,,---,0.00,VWS V14.01,2013-10-31 19:01:00,
2013-10-31 13:10:00,39.2,15.7,29.84,West,263,15.0,32.0,38,0.00,,---,0.00,VWS V14.01,2013-10-31 19:10:00,
2013-10-31 13:11:00,39.3,17.0,29.83,West,263,25.0,30.0,40,0.00,,---,0.00,VWS V14.01,2013-10-31 19:11:00,
2013-10-31 13:20:00,38.3,15.5,29.85,West,261,16.0,31.0,39,0.00,,---,0.00,VWS V14.01,2013-10-31 19:20:00,
2013-10-31 13:21:00,39.1,16.2,29.83,WNW,290,20.0,33.0,39,0.00,,---,0.00,VWS V14.01,2013-10-31 19:21:00,
2013-10-31 13:30:00,38.7,15.3,29.83,West,271,15.0,32.0,38,0.00,,---,0.00,VWS V14.01,2013-10-31 19:30:00,
2013-10-31 13:31:00,39.6,16.7,29.81,WSW,252,28.0,30.0,39,0.00,,---,0.00,VWS V14.01,2013-10-31 19:31:00,
2013-10-31 13:40:00,38.6,17.0,29.83,West,278,19.0,33.0,41,0.00,,---,0.00,VWS V14.01,2013-10-31 19:40:00,
2013-10-31 13:41:00,39.7,16.8,29.80,WSW,258,14.0,30.0,39,0.00,,---,0.00,VWS V14.01,2013-10-31 19:41:00,
2013-10-31 13:50:00,38.6,15.8,29.84,WNW,289,13.0,33.0,39,0.00,,---,0.00,VWS V14.01,2013-10-31 19:50:00,
2013-10-31 13:51:00,39.0,17.3,29.81,WSW,248,33.0,46.0,41,0.00,,---,0.00,VWS V14.01,2013-10-31 19:51:00,
2013-10-31 14:00:00,38.9,15.5,29.82,West,259,8.0,33.0,38,0.00,,---,0.00,VWS V14.01,2013-10-31 20:00:00,
2013-10-31 14:01:00,39.2,16.9,29.81,West,276,15.0,37.0,40,0.00,,---,0.00,VWS V14.01,2013-10-31 20:01:00,
2013-10-31 14:10:00,39.3,17.0,29.83,West,263,25.0,30.0,40,0.00,,---,0.00,VWS V14.01,2013-10-31 20:10:00,
2013-10-31 14:11:00,39.3,17.0,29.78,WSW,248,20.0,33.0,40,0.00,,---,0.00,VWS V14.01,2013-10-31 20:11:00,
2013-10-31 14:20:00,39.1,16.2,29.83,WNW,290,20.0,33.0,39,0.00,,---,0.00,VWS V14.01,2013-10-31 20:20:00,
2013-10-31 14:21:00,39.5,17.2,29.79,WSW,247,19.0,36.0,40,0.00,,---,0.00,VWS V14.01,2013-10-31 20:21:00,
2013-10-31 14:30:00,39.6,16.7,29.81,WSW,252,28.0,30.0,39,0.00,,---,0.00,VWS V14.01,2013-10-31 20:30:00,
2013-10-31 14:31:00,39.3,17.6,29.80,WSW,248,23.0,38.0,41,0.00,,---,0.00,VWS V14.01,2013-10-31 20:31:00,
2013-10-31 14:40:00,39.7,16.8,29.80,WSW,258,14.0,30.0,39,0.00,,---,0.00,VWS V14.01,2013-10-31 20:40:00,
2013-10-31 14:41:00,39.4,17.1,29.79,WSW,241,23.0,31.0,40,0.00,,---,0.00,VWS V14.01,2013-10-31 20:41:00,
2013-10-31 14:50:00,39.0,17.3,29.81,WSW,248,33.0,46.0,41,0.00,,---,0.00,VWS V14.01,2013-10-31 20:50:00,
2013-10-31 14:51:00,39.4,17.1,29.79,WSW,257,24.0,35.0,40,0.00,,---,0.00,VWS V14.01,2013-10-31 20:51:00,
2013-10-31 15:00:00,39.2,16.9,29.81,West,276,15.0,37.0,40,0.00,,---,0.00,VWS V14.01,2013-10-31 21:00:00,
2013-10-31 15:01:00,39.5,17.2,29.79,West,263,15.0,31.0,40,0.00,,---,0.00,VWS V14.01,2013-10-31 21:01:00,
2013-10-31 15:10:00,39.3,17.0,29.78,WSW,248,20.0,33.0,40,0.00,,---,0.00,VWS V14.01,2013-10-31 21:10:00,
2013-10-31 15:11:00,39.1,17.4,29.81,WSW,257,13.0,32.0,41,0.00,,---,0.00,VWS V14.01,2013-10-31 21:11:00,
2013-10-31 15:20:00,39.5,17.2,29.79,WSW,247,19.0,36.0,40,0.00,,---,0.00,VWS V14.01,2013-10-31 21:20:00,
2013-10-31 15:21:00,37.7,17.2,29.81,West,259,19.0,33.0,43,0.00,,---,0.00,VWS V14.01,2013-10-31 21:21:00,
2013-10-31 15:30:00,39.3,17.6,29.80,WSW,248,23.0,38.0,41,0.00,,---,0.00,VWS V14.01,2013-10-31 21:30:00,
2013-10-31 15:31:00,38.2,17.1,29.81,WSW,249,12.0,32.0,42,0.00,,---,0.00,VWS V14.01,2013-10-31 21:31:00,
2013-10-31 15:40:00,39.4,17.1,29.79,WSW,241,23.0,31.0,40,0.00,,---,0.00,VWS V14.01,2013-10-31 21:40:00,
2013-10-31 15:41:00,38.5,16.9,29.82,WNW,283,13.0,32.0,41,0.00,,---,0.00,VWS V14.01,2013-10-31 21:41:00,
2013-10-31 15:50:00,39.4,17.1,29.79,WSW,257,24.0,35.0,40,0.00,,---,0.00,VWS V14.01,2013-10-31 21:50:00,
2013-10-31 15:51:00,38.3,17.2,29.82,West,263,23.0,24.0,42,0.00,,---,0.00,VWS V14.01,2013-10-31 21:51:00,
2013-10-31 16:00:00,39.5,17.2,29.79,West,263,15.0,31.0,40,0.00,,---,0.00,VWS V14.01,2013-10-31 22:00:00,
2013-10-31 16:01:00,38.9,17.2,29.82,SW,236,15.0,29.0,41,0.00,,---,0.00,VWS V14.01,2013-10-31 22:01:00,
2013-10-31 16:10:00,39.1,17.4,29.81,WSW,257,13.0,32.0,41,0.00,,---,0.00,VWS V14.01,2013-10-31 22:10:00,
2013-10-31 16:11:00,38.7,17.0,29.82,WSW,244,16.0,24.0,41,0.00,,---,0.00,VWS V14.01,2013-10-31 22:11:00,
2013-10-31 16:20:00,37.7,17.2,29.81,West,259,19.0,33.0,43,0.00,,---,0.00,VWS V14.01,2013-10-31 22:20:00,
2013-10-31 16:21:00,38.0,17.0,29.85,WSW,254,13.0,24.0,42,0.00,,---,0.00,VWS V14.01,2013-10-31 22:21:00,
2013-10-31 16:30:00,38.2,17.1,29.81,WSW,249,12.0,32.0,42,0.00,,---,0.00,VWS V14.01,2013-10-31 22:30:00,
2013-10-31 16:31:00,38.3,16.7,29.84,West,263,14.0,23.0,41,0.00,,---,0.00,VWS V14.01,2013-10-31 22:31:00,
2013-10-31 16:40:00,38.5,16.9,29.82,WNW,283,13.0,32.0,41,0.00,,---,0.00,VWS V14.01,2013-10-31 22:40:00,
2013-10-31 16:41:00,38.1,16.5,29.83,NE,52,0.0,18.0,41,0.00,,---,0.00,VWS V14.01,2013-10-31 22:41:00,
2013-10-31 16:50:00,38.3,17.2,29.82,West,263,23.0,24.0,42,0.00,,---,0.00,VWS V14.01,2013-10-31 22:50:00,
2013-10-31 16:51:00,38.7,16.5,29.82,NE,52,0.0,0.0,40,0.00,,---,0.00,VWS V14.01,2013-10-31 22:51:00,
2013-10-31 17:00:00,38.9,17.2,29.82,SW,236,15.0,29.0,41,0.00,,---,0.00,VWS V14.01,2013-10-31 23:00:00,
2013-10-31 17:01:00,38.8,17.1,29.83,SSW,194,7.0,7.0,41,0.00,,---,0.00,VWS V14.01,2013-10-31 23:01:00,
2013-10-31 17:10:00,38.7,17.0,29.82,WSW,244,16.0,24.0,41,0.00,,---,0.00,VWS V14.01,2013-10-31 23:10:00,
2013-10-31 17:11:00,37.5,17.0,29.84,WSW,254,5.0,21.0,43,0.00,,---,0.00,VWS V14.01,2013-10-31 23:11:00,
2013-10-31 17:20:00,38.0,17.0,29.85,WSW,254,13.0,24.0,42,0.00,,---,0.00,VWS V14.01,2013-10-31 23:20:00,
2013-10-31 17:21:00,36.5,17.2,29.84,WNW,283,12.0,24.0,45,0.00,,---,0.00,VWS V14.01,2013-10-31 23:21:00,
2013-10-31 17:30:00,38.3,16.7,29.84,West,263,14.0,23.0,41,0.00,,---,0.00,VWS V14.01,2013-10-31 23:30:00,
2013-10-31 17:31:00,34.4,17.2,29.86,NNW,344,9.0,19.0,49,0.00,,---,0.00,VWS V14.01,2013-10-31 23:31:00,
2013-10-31 17:40:00,38.1,16.5,29.83,NE,52,0.0,18.0,41,0.00,,---,0.00,VWS V14.01,2013-10-31 23:40:00,
2013-10-31 17:41:00,34.4,17.2,29.86,NNW,340,4.0,15.0,49,0.00,,---,0.00,VWS V14.01,2013-10-31 23:41:00,
2013-10-31 17:50:00,38.7,16.5,29.82,NE,52,0.0,0.0,40,0.00,,---,0.00,VWS V14.01,2013-10-31 23:50:00,
2013-10-31 17:51:00,34.4,17.2,29.86,NNW,333,7.0,13.0,49,0.00,,---,0.00,VWS V14.01,2013-10-31 23:51:00,
2013-10-31 18:00:00,38.8,17.1,29.83,SSW,194,7.0,7.0,41,0.00,,---,0.00,VWS V14.01,2013-11-01 00:00:00,
2013-10-31 18:01:00,34.1,17.9,29.86,NW,314,7.0,19.0,51,0.00,,---,0.00,VWS V14.01,2013-11-01 00:01:00,
2013-10-31 18:10:00,37.5,17.0,29.84,WSW,254,5.0,21.0,43,0.00,,---,0.00,VWS V14.01,2013-11-01 00:10:00,
2013-10-31 18:11:00,33.3,18.0,29.89,WNW,288,11.0,14.0,53,0.00,,---,0.00,VWS V14.01,2013-11-01 00:11:00,
2013-10-31 18:20:00,36.5,17.2,29.84,WNW,283,12.0,24.0,45,0.00,,---,0.00,VWS V14.01,2013-11-01 00:20:00,
2013-10-31 18:21:00,32.6,18.2,29.89,WNW,290,5.0,13.0,55,0.00,,---,0.00,VWS V14.01,2013-11-01 00:21:00,
2013-10-31 18:30:00,34.4,17.2,29.86,NNW,344,9.0,19.0,49,0.00,,---,0.00,VWS V14.01,2013-11-01 00:30:00,
2013-10-31 18:31:00,31.9,18.0,29.88,WNW,290,7.0,9.0,56,0.00,,---,0.00,VWS V14.01,2013-11-01 00:31:00,
2013-10-31 18:40:00,34.4,17.2,29.86,NNW,340,4.0,15.0,49,0.00,,---,0.00,VWS V14.01,2013-11-01 00:40:00,
2013-10-31 18:41:00,31.7,17.4,29.89,WNW,291,6.0,9.0,55,0.00,,---,0.00,VWS V14.01,2013-11-01 00:41:00,
2013-10-31 18:50:00,34.4,17.2,29.86,NNW,333,7.0,13.0,49,0.00,,---,0.00,VWS V14.01,2013-11-01 00:50:00,
2013-10-31 18:51:00,32.8,17.6,29.89,NNE,14,5.0,16.0,53,0.00,,---,0.00,VWS V14.01,2013-11-01 00:51:00,
2013-10-31 19:00:00,34.1,17.9,29.86,NW,314,7.0,19.0,51,0.00,,---,0.00,VWS V14.01,2013-11-01 01:00:00,
2013-10-31 19:01:00,32.3,17.1,29.89,NNE,14,4.0,10.0,53,0.00,,---,0.00,VWS V14.01,2013-11-01 01:01:00,
2013-10-31 19:10:00,33.3,18.0,29.89,WNW,288,11.0,14.0,53,0.00,,---,0.00,VWS V14.01,2013-11-01 01:10:00,
2013-10-31 19:11:00,32.3,17.1,29.90,NNE,15,0.0,6.0,53,0.00,,---,0.00,VWS V14.01,2013-11-01 01:11:00,
2013-10-31 19:20:00,32.6,18.2,29.89,WNW,290,5.0,13.0,55,0.00,,---,0.00,VWS V14.01,2013-11-01 01:20:00,
2013-10-31 19:21:00,33.2,17.0,29.89,NNE,14,0.0,11.0,51,0.00,,---,0.00,VWS V14.01,2013-11-01 01:21:00,
2013-10-31 19:30:00,31.9,18.0,29.88,WNW,290,7.0,9.0,56,0.00,,---,0.00,VWS V14.01,2013-11-01 01:30:00,
2013-10-31 19:31:00,33.3,17.1,29.89,North,11,11.0,17.0,51,0.00,,---,0.00,VWS V14.01,2013-11-01 01:31:00,
2013-10-31 19:40:00,31.7,17.4,29.89,WNW,291,6.0,9.0,55,0.00,,---,0.00,VWS V14.01,2013-11-01 01:40:00,
2013-10-31 19:41:00,33.3,17.1,29.90,NW,309,22.0,22.0,51,0.00,,---,0.00,VWS V14.01,2013-11-01 01:41:00,
2013-10-31 19:50:00,32.8,17.6,29.89,NNE,14,5.0,16.0,53,0.00,,---,0.00,VWS V14.01,2013-11-01 01:50:00,
2013-10-31 19:51:00,33.7,17.0,29.90,North,360,6.0,22.0,50,0.00,,---,0.00,VWS V14.01,2013-11-01 01:51:00,
2013-10-31 20:00:00,32.3,17.1,29.89,NNE,14,4.0,10.0,53,0.00,,---,0.00,VWS V14.01,2013-11-01 02:00:00,
2013-10-31 20:01:00,33.4,17.2,29.90,NNE,14,8.0,23.0,51,0.00,,---,0.00,VWS V14.01,2013-11-01 02:01:00,
2013-10-31 20:10:00,32.3,17.1,29.90,NNE,15,0.0,6.0,53,0.00,,---,0.00,VWS V14.01,2013-11-01 02:10:00,
2013-10-31 20:11:00,33.6,17.0,29.88,North,360,0.0,17.0,50,0.00,,---,0.00,VWS V14.01,2013-11-01 02:11:00,
2013-10-31 20:20:00,33.2,17.0,29.89,NNE,14,0.0,11.0,51,0.00,,---,0.00,VWS V14.01,2013-11-01 02:20:00,
2013-10-31 20:21:00,33.2,17.0,29.88,NNE,22,8.0,13.0,51,0.00,,---,0.00,VWS V14.01,2013-11-01 02:21:00,
2013-10-31 20:30:00,33.3,17.1,29.89,North,11,11.0,17.0,51,0.00,,---,0.00,VWS V14.01,2013-11-01 02:30:00,
2013-10-31 20:31:00,32.9,16.8,29.88,NE,42,0.0,13.0,51,0.00,,---,0.00,VWS V14.01,2013-11-01 02:31:00,
2013-10-31 20:40:00,33.3,17.1,29.90,NW,309,22.0,22.0,51,0.00,,---,0.00,VWS V14.01,2013-11-01 02:40:00,
2013-10-31 20:41:00,32.6,16.5,29.88,East,84,0.0,10.0,51,0.00,,---,0.00,VWS V14.01,2013-11-01 02:41:00,
2013-10-31 20:50:00,33.7,17.0,29.90,North,360,6.0,22.0,50,0.00,,---,0.00,VWS V14.01,2013-11-01 02:50:00,
2013-10-31 20:51:00,32.0,15.9,29.90,East,84,0.0,0.0,51,0.00,,---,0.00,VWS V14.01,2013-11-01 02:51:00,
2013-10-31 21:00:00,33.4,17.2,29.90,NNE,14,8.0,23.0,51,0.00,,---,0.00,VWS V14.01,2013-11-01 03:00:00,
2013-10-31 21:01:00,31.4,16.3,29.91,East,83,0.0,0.0,53,0.00,,---,0.00,VWS V14.01,2013-11-01 03:01:00,
2013-10-31 21:10:00,33.6,17.0,29.88,North,360,0.0,17.0,50,0.00,,---,0.00,VWS V14.01,2013-11-01 03:10:00,
2013-10-31 21:11:00,28.0,14.3,29.91,SE,129,0.0,0.0,56,0.00,,---,0.00,VWS V14.01,2013-11-01 03:11:00,
2013-10-31 21:20:00,33.2,17.0,29.88,NNE,22,8.0,13.0,51,0.00,,---,0.00,VWS V14.01,2013-11-01 03:20:00,
2013-10-31 21:21:00,27.9,15.4,29.92,SE,129,0.0,0.0,59,0.00,,---,0.00,VWS V14.01,2013-11-01 03:21:00,
2013-10-31 21:30:00,32.9,16.8,29.88,NE,42,0.0,13.0,51,0.00,,---,0.00,VWS V14.01,2013-11-01 03:30:00,
2013-10-31 21:31:00,28.6,15.7,29.92,SE,129,0.0,0.0,58,0.00,,---,0.00,VWS V14.01,2013-11-01 03:31:00,
2013-10-31 21:40:00,32.6,16.5,29.88,East,84,0.0,10.0,51,0.00,,---,0.00,VWS V14.01,2013-11-01 03:40:00,
2013-10-31 21:41:00,28.7,15.8,29.93,SE,129,0.0,0.0,58,0.00,,---,0.00,VWS V14.01,2013-11-01 03:41:00,
2013-10-31 21:50:00,32.0,15.9,29.90,East,84,0.0,0.0,51,0.00,,---,0.00,VWS V14.01,2013-11-01 03:50:00,
2013-10-31 21:51:00,28.7,16.6,29.93,SE,129,0.0,0.0,60,0.00,,---,0.00,VWS V14.01,2013-11-01 03:51:00,
2013-10-31 22:00:00,31.4,16.3,29.91,East,83,0.0,0.0,53,0.00,,---,0.00,VWS V14.01,2013-11-01 04:00:00,
2013-10-31 22:01:00,29.1,17.3,29.94,SE,129,0.0,0.0,61,0.00,,---,0.00,VWS V14.01,2013-11-01 04:01:00,
2013-10-31 22:10:00,28.0,14.4,29.91,SE,129,0.0,0.0,56,0.00,,---,0.00,VWS V14.01,2013-11-01 04:10:00,
2013-10-31 22:11:00,29.2,17.4,29.92,SE,129,0.0,0.0,61,0.00,,---,0.00,VWS V14.01,2013-11-01 04:11:00,
2013-10-31 22:20:00,27.9,15.4,29.92,SE,129,0.0,0.0,59,0.00,,---,0.00,VWS V14.01,2013-11-01 04:20:00,
2013-10-31 22:21:00,28.2,16.5,29.93,SE,129,0.0,0.0,61,0.00,,---,0.00,VWS V14.01,2013-11-01 04:21:00,
2013-10-31 22:30:00,28.6,15.7,29.92,SE,129,0.0,0.0,58,0.00,,---,0.00,VWS V14.01,2013-11-01 04:30:00,
2013-10-31 22:31:00,27.6,16.3,29.93,SE,129,0.0,0.0,62,0.00,,---,0.00,VWS V14.01,2013-11-01 04:31:00,
2013-10-31 22:40:00,28.7,15.8,29.93,SE,129,0.0,0.0,58,0.00,,---,0.00,VWS V14.01,2013-11-01 04:40:00,
2013-10-31 22:41:00,27.4,16.5,29.94,SE,129,0.0,0.0,63,0.00,,---,0.00,VWS V14.01,2013-11-01 04:41:00,
2013-10-31 22:50:00,28.7,16.6,29.93,SE,129,0.0,0.0,60,0.00,,---,0.00,VWS V14.01,2013-11-01 04:50:00,
2013-10-31 22:51:00,27.1,16.2,29.94,SE,129,0.0,0.0,63,0.00,,---,0.00,VWS V14.01,2013-11-01 04:51:00,
2013-10-31 23:00:00,29.1,17.3,29.94,SE,129,0.0,0.0,61,0.00,,---,0.00,VWS V14.01,2013-11-01 05:00:00,
2013-10-31 23:01:00,27.2,16.6,29.93,SE,129,0.0,0.0,64,0.00,,---,0.00,VWS V14.01,2013-11-01 05:01:00,
2013-10-31 23:10:00,29.2,17.4,29.92,SE,129,0.0,0.0,61,0.00,,---,0.00,VWS V14.01,2013-11-01 05:10:00,
2013-10-31 23:11:00,26.0,15.5,29.93,SSE,153,0.0,0.0,64,0.00,,---,0.00,VWS V14.01,2013-11-01 05:11:00,
2013-10-31 23:20:00,28.2,16.5,29.93,SE,129,0.0,0.0,61,0.00,,---,0.00,VWS V14.01,2013-11-01 05:20:00,
2013-10-31 23:21:00,24.8,15.8,29.93,SSE,153,0.0,0.0,68,0.00,,---,0.00,VWS V14.01,2013-11-01 05:21:00,
2013-10-31 23:30:00,27.6,16.3,29.93,SE,129,0.0,0.0,62,0.00,,---,0.00,VWS V14.01,2013-11-01 05:30:00,
2013-10-31 23:31:00,26.1,16.0,29.93,South,169,0.0,0.0,65,0.00,,---,0.00,VWS V14.01,2013-11-01 05:31:00,
2013-10-31 23:40:00,27.4,16.5,29.94,SE,129,0.0,0.0,63,0.00,,---,0.00,VWS V14.01,2013-11-01 05:40:00,
2013-10-31 23:41:00,25.4,15.6,29.92,South,179,0.0,7.0,66,0.00,,---,0.00,VWS V14.01,2013-11-01 05:41:00,
2013-10-31 23:50:00,27.1,16.2,29.94,SE,129,0.0,0.0,63,0.00,,---,0.00,VWS V14.01,2013-11-01 05:50:00,
2013-10-31 23:51:00,25.7,16.6,29.93,SSW,194,0.0,7.0,68,0.00,,---,0.00,VWS V14.01,2013-11-01 05:51:00,